Location: Newark
(48.1500°N, 2.9667°W)
Time: 00:57:17
(UTC+00:00)

Courier 1B - Pass Details

Date: 28 January 2020
Orbit: 962 x 1209 km, 28.3° (Epoch: 20 February)

Event Time Altitude Azimuth Distance (km) Brightness Sun altitude
Exits shadow 04:34:04 15° 179° (S) 2,681 9.7 -31.9°
Drops below altitude 10° 04:37:20 10° 153° (SSE) 3,063 10.3 -31.3°
Sets 04:41:39 0° 132° (SE) 4,063 11.3 -30.6°
